User: anonymous   Login
Location: Hamburg
(53.5500°N, 10.0000°E)
Time: 12:33:12
(UTC+02:00)
Language:

Courier 1B - Orbit

View from above orbital plane
View from above orbital plane
View from above satellite
View from above satellite

Ground track
Ground track

The orbit data is extracted from the following two-line orbital elements,

1 00058U 60013A   16210.15195648  .00000093  00000-0  80947-5 0  9997
2 00058  28.3282 100.0955 0165064 190.5973 169.1065 13.46303964747607
Epoch (UTC): 28 July 2016 03:38:49
Eccentricity: 0.0165064
inclination: 28.3282°
perigee height: 962 km
apogee height: 1209 km
right ascension of ascending node: 100.0955°
argument of perigee: 190.5973°
revolutions per day: 13.46303964
mean anomaly at epoch: 169.1065°
orbit number at epoch: 74760

The dashed part of the orbit path shows where the satellite is in the earth's shadow,  

DLR